N512AC KCLT-KRDU

Flight info

Callsign N512AC
Flight time 0h 44m
Altitude 11000
Route KNI3 PEKNN SDZ BUZZY BUZZY1
Aircraft BE58/L-SBGR/L

Departure

Time 2026-05-07 03:03
Airport Charlotte Douglas International Airport (KCLT)

Arrival

Time 2026-05-07 03:48
Airport Raleigh-Durham International Airport (KRDU)
Time Latitude Longitude Altitude Speed Heading
2026-05-07 02:46 35.22401 -80.94871 740 ft 0 kts 16°
2026-05-07 02:58 35.22403 -80.94871 740 ft 2 kts
2026-05-07 02:58 35.22432 -80.94929 740 ft 10 kts 282°
2026-05-07 02:58 35.22440 -80.94973 740 ft 2 kts 281°
2026-05-07 02:59 35.22443 -80.94991 740 ft 5 kts 280°
2026-05-07 02:59 35.22446 -80.95035 740 ft 4 kts 272°
2026-05-07 02:59 35.22469 -80.95078 741 ft 10 kts 340°
2026-05-07 02:59 35.22559 -80.95100 742 ft 13 kts 353°
2026-05-07 03:00 35.22632 -80.95106 743 ft 8 kts 355°
2026-05-07 03:00 35.22676 -80.95110 744 ft 4 kts 357°
2026-05-07 03:00 35.22709 -80.95116 745 ft 7 kts 339°
2026-05-07 03:00 35.22735 -80.95157 745 ft 5 kts 273°
2026-05-07 03:01 35.22734 -80.95183 744 ft 0 kts 265°
2026-05-07 03:02 35.22725 -80.95260 744 ft 16 kts 248°
2026-05-07 03:02 35.22589 -80.95304 742 ft 53 kts 174°
2026-05-07 03:03 35.21888 -80.95209 860 ft 132 kts 175°
2026-05-07 03:03 35.20908 -80.95018 1416 ft 148 kts 172°
2026-05-07 03:03 35.20101 -80.94272 2111 ft 164 kts 113°
2026-05-07 03:03 35.19990 -80.92839 2688 ft 168 kts 105°
2026-05-07 03:04 35.19840 -80.91418 3305 ft 164 kts 108°
2026-05-07 03:04 35.19708 -80.90110 4092 ft 152 kts 107°
2026-05-07 03:04 35.19554 -80.88732 4489 ft 168 kts 107°
2026-05-07 03:04 35.19394 -80.87321 5079 ft 170 kts 106°
2026-05-07 03:05 35.19266 -80.85716 5000 ft 207 kts 98°
2026-05-07 03:05 35.19282 -80.83900 4944 ft 220 kts 93°
2026-05-07 03:05 35.19353 -80.82050 5104 ft 216 kts 93°
2026-05-07 03:05 35.19405 -80.80216 5270 ft 213 kts 94°
2026-05-07 03:06 35.19443 -80.78403 5435 ft 213 kts 94°
2026-05-07 03:06 35.19481 -80.76607 5597 ft 213 kts 94°
2026-05-07 03:06 35.19522 -80.74800 5764 ft 212 kts 94°
2026-05-07 03:06 35.19563 -80.73005 5929 ft 210 kts 94°
2026-05-07 03:07 35.19601 -80.71248 6107 ft 208 kts 94°
2026-05-07 03:07 35.19641 -80.69481 6258 ft 206 kts 93°
2026-05-07 03:07 35.19677 -80.67726 6427 ft 205 kts 93°
2026-05-07 03:07 35.19714 -80.66009 6581 ft 204 kts 94°
2026-05-07 03:08 35.19752 -80.64270 6746 ft 203 kts 94°
2026-05-07 03:08 35.19788 -80.62544 6907 ft 203 kts 94°
2026-05-07 03:08 35.19824 -80.60820 7068 ft 203 kts 93°
2026-05-07 03:08 35.19860 -80.59097 7235 ft 202 kts 93°
2026-05-07 03:09 35.19897 -80.57393 7392 ft 199 kts 93°
2026-05-07 03:09 35.19932 -80.55700 7554 ft 198 kts 94°
2026-05-07 03:09 35.19968 -80.54025 7720 ft 196 kts 93°
2026-05-07 03:09 35.20001 -80.52385 7881 ft 195 kts 93°
2026-05-07 03:10 35.20035 -80.50727 8048 ft 194 kts 93°
2026-05-07 03:10 35.20068 -80.49075 8215 ft 194 kts 93°
2026-05-07 03:10 35.20101 -80.47432 8379 ft 192 kts 94°
2026-05-07 03:10 35.20133 -80.45809 8544 ft 190 kts 94°
2026-05-07 03:11 35.20165 -80.44169 8720 ft 196 kts 94°
2026-05-07 03:11 35.20196 -80.42480 8896 ft 200 kts 93°
2026-05-07 03:11 35.20229 -80.40795 9072 ft 201 kts 92°
2026-05-07 03:11 35.20263 -80.39085 9248 ft 200 kts 93°
2026-05-07 03:12 35.20297 -80.37382 9423 ft 199 kts 93°
2026-05-07 03:12 35.20328 -80.35693 9613 ft 200 kts 93°
2026-05-07 03:12 35.20360 -80.33973 9799 ft 204 kts 93°
2026-05-07 03:12 35.20392 -80.32223 9974 ft 207 kts 93°
2026-05-07 03:13 35.20425 -80.30471 10138 ft 209 kts 93°
2026-05-07 03:13 35.20458 -80.28697 10306 ft 208 kts 93°
2026-05-07 03:13 35.20489 -80.26928 10471 ft 207 kts 93°
2026-05-07 03:13 35.20523 -80.25165 10634 ft 206 kts 93°
2026-05-07 03:14 35.20556 -80.23422 10799 ft 205 kts 93°
2026-05-07 03:14 35.20586 -80.21678 10953 ft 205 kts 93°
2026-05-07 03:14 35.20646 -80.18112 10950 ft 215 kts 92°
2026-05-07 03:15 35.20678 -80.16277 10955 ft 216 kts 92°
2026-05-07 03:15 35.20711 -80.14430 10959 ft 217 kts 92°
2026-05-07 03:15 35.20743 -80.12584 10962 ft 217 kts 92°
2026-05-07 03:15 35.20772 -80.10762 10964 ft 217 kts 93°
2026-05-07 03:16 35.20804 -80.08915 10965 ft 218 kts 92°
2026-05-07 03:16 35.20835 -80.07063 10965 ft 218 kts 92°
2026-05-07 03:16 35.20866 -80.05203 10963 ft 218 kts 92°
2026-05-07 03:16 35.20896 -80.03346 10960 ft 219 kts 92°
2026-05-07 03:17 35.20926 -80.01485 10959 ft 219 kts 92°
2026-05-07 03:17 35.20956 -79.99625 10960 ft 219 kts 92°
2026-05-07 03:17 35.20986 -79.97770 10964 ft 218 kts 93°
2026-05-07 03:17 35.21015 -79.95916 10961 ft 219 kts 93°
2026-05-07 03:18 35.21043 -79.94070 10956 ft 219 kts 93°
2026-05-07 03:18 35.21070 -79.92211 10957 ft 218 kts 93°
2026-05-07 03:18 35.21101 -79.90346 10954 ft 219 kts 92°
2026-05-07 03:18 35.21130 -79.88477 10950 ft 220 kts 92°
2026-05-07 03:19 35.21157 -79.86615 10948 ft 219 kts 92°
2026-05-07 03:19 35.21185 -79.84747 10946 ft 219 kts 92°
2026-05-07 03:19 35.21213 -79.82879 10944 ft 220 kts 92°
2026-05-07 03:19 35.21241 -79.81008 10942 ft 220 kts 92°
2026-05-07 03:20 35.21268 -79.79138 10936 ft 226 kts 92°
2026-05-07 03:20 35.21294 -79.77201 10936 ft 230 kts 92°
2026-05-07 03:20 35.21322 -79.75238 10938 ft 231 kts 92°
2026-05-07 03:20 35.21350 -79.73270 10936 ft 232 kts 92°
2026-05-07 03:21 35.21378 -79.71292 10935 ft 233 kts 92°
2026-05-07 03:21 35.21405 -79.69337 10937 ft 233 kts 92°
2026-05-07 03:21 35.21432 -79.67355 10938 ft 233 kts 92°
2026-05-07 03:21 35.21459 -79.65376 10967 ft 232 kts 92°
2026-05-07 03:22 35.21485 -79.63402 10969 ft 232 kts 92°
2026-05-07 03:22 35.21547 -79.61427 10968 ft 232 kts 83°
2026-05-07 03:22 35.22049 -79.59556 10960 ft 232 kts 60°
2026-05-07 03:22 35.23001 -79.57997 10967 ft 226 kts 38°
2026-05-07 03:23 35.24236 -79.56918 10970 ft 218 kts 21°
2026-05-07 03:23 35.25567 -79.56004 10974 ft 219 kts 22°
2026-05-07 03:23 35.26893 -79.55075 10978 ft 219 kts 22°
2026-05-07 03:23 35.28216 -79.54151 10980 ft 218 kts 22°
2026-05-07 03:24 35.29539 -79.53230 10985 ft 218 kts 21°
2026-05-07 03:24 35.30859 -79.52314 10982 ft 218 kts 21°
2026-05-07 03:24 35.32167 -79.51403 10981 ft 218 kts 22°
2026-05-07 03:24 35.33484 -79.50484 11027 ft 217 kts 22°
2026-05-07 03:25 35.34791 -79.49572 11025 ft 216 kts 22°
2026-05-07 03:25 35.36084 -79.48671 11025 ft 216 kts 22°
2026-05-07 03:25 35.37395 -79.47758 11024 ft 216 kts 22°
2026-05-07 03:25 35.38701 -79.46845 11023 ft 216 kts 22°
2026-05-07 03:26 35.40008 -79.45932 11022 ft 216 kts 22°
2026-05-07 03:26 35.41314 -79.45019 11022 ft 216 kts 22°
2026-05-07 03:26 35.42618 -79.44109 11020 ft 216 kts 22°
2026-05-07 03:26 35.43926 -79.43195 11018 ft 215 kts 22°
2026-05-07 03:27 35.45227 -79.42285 11013 ft 215 kts 22°
2026-05-07 03:27 35.46532 -79.41372 11013 ft 215 kts 22°
2026-05-07 03:27 35.47812 -79.40474 11012 ft 214 kts 24°
2026-05-07 03:27 35.48942 -79.39231 11017 ft 221 kts 45°
2026-05-07 03:28 35.49908 -79.37755 11022 ft 222 kts 48°
2026-05-07 03:28 35.50887 -79.36281 11011 ft 223 kts 46°
2026-05-07 03:28 35.51890 -79.34828 11013 ft 223 kts 45°
2026-05-07 03:28 35.52894 -79.33374 11015 ft 223 kts 46°
2026-05-07 03:29 35.53896 -79.31915 11019 ft 222 kts 46°
2026-05-07 03:29 35.54884 -79.30476 11020 ft 222 kts 45°
2026-05-07 03:29 35.55880 -79.29024 11021 ft 223 kts 45°
2026-05-07 03:29 35.56880 -79.27567 11023 ft 223 kts 46°
2026-05-07 03:30 35.57882 -79.26104 11024 ft 223 kts 46°
2026-05-07 03:30 35.58884 -79.24643 11025 ft 224 kts 45°
2026-05-07 03:30 35.59876 -79.23195 11028 ft 223 kts 45°
2026-05-07 03:30 35.60874 -79.21735 11031 ft 223 kts 45°
2026-05-07 03:31 35.61879 -79.20269 11033 ft 224 kts 45°
2026-05-07 03:31 35.62881 -79.18804 11028 ft 224 kts 45°
2026-05-07 03:31 35.63888 -79.17329 10885 ft 225 kts 46°
2026-05-07 03:31 35.64889 -79.15862 10745 ft 224 kts 46°
2026-05-07 03:32 35.65892 -79.14398 10605 ft 223 kts 46°
2026-05-07 03:32 35.66892 -79.12934 10460 ft 223 kts 46°
2026-05-07 03:32 35.67880 -79.11487 10321 ft 223 kts 46°
2026-05-07 03:32 35.68878 -79.10024 10180 ft 223 kts 46°
2026-05-07 03:33 35.69875 -79.08561 10042 ft 223 kts 46°
2026-05-07 03:33 35.70872 -79.07100 9899 ft 223 kts 46°
2026-05-07 03:33 35.71865 -79.05642 9748 ft 222 kts 46°
2026-05-07 03:33 35.72858 -79.04184 9593 ft 222 kts 46°
2026-05-07 03:34 35.73851 -79.02726 9435 ft 222 kts 46°
2026-05-07 03:34 35.74843 -79.01268 9281 ft 222 kts 46°
2026-05-07 03:34 35.75823 -78.99829 9130 ft 222 kts 46°
2026-05-07 03:34 35.76816 -78.98369 8963 ft 222 kts 46°
2026-05-07 03:35 35.77809 -78.96908 8816 ft 222 kts 46°
2026-05-07 03:35 35.78800 -78.95447 8665 ft 222 kts 46°
2026-05-07 03:35 35.79796 -78.93982 8518 ft 222 kts 46°
2026-05-07 03:35 35.80774 -78.92542 8375 ft 221 kts 46°
2026-05-07 03:36 35.81763 -78.91083 8228 ft 222 kts 46°
2026-05-07 03:36 35.82750 -78.89628 8084 ft 222 kts 46°
2026-05-07 03:36 35.83743 -78.88164 7935 ft 221 kts 46°
2026-05-07 03:36 35.84729 -78.86708 7792 ft 221 kts 46°
2026-05-07 03:37 35.85715 -78.85253 7648 ft 221 kts 45°
2026-05-07 03:37 35.86691 -78.83813 7503 ft 221 kts 46°
2026-05-07 03:37 35.87676 -78.82356 7355 ft 220 kts 46°
2026-05-07 03:37 35.88660 -78.80902 7218 ft 220 kts 46°
2026-05-07 03:38 35.89641 -78.79451 7074 ft 220 kts 45°
2026-05-07 03:38 35.90624 -78.78000 6931 ft 220 kts 46°
2026-05-07 03:38 35.91594 -78.76562 6795 ft 220 kts 46°
2026-05-07 03:38 35.92576 -78.75106 6653 ft 221 kts 45°
2026-05-07 03:39 35.93561 -78.73650 6512 ft 221 kts 46°
2026-05-07 03:39 35.94549 -78.72187 6369 ft 221 kts 46°
2026-05-07 03:39 35.95531 -78.70729 6223 ft 221 kts 46°
2026-05-07 03:39 35.96517 -78.69268 6070 ft 221 kts 46°
2026-05-07 03:40 35.97505 -78.67801 5916 ft 222 kts 46°
2026-05-07 03:40 35.98482 -78.66352 5777 ft 222 kts 46°
2026-05-07 03:40 35.99470 -78.64883 5621 ft 222 kts 46°
2026-05-07 03:40 36.00463 -78.63409 5471 ft 222 kts 47°
2026-05-07 03:41 36.01118 -78.62436 5377 ft 222 kts 47°
2026-05-07 03:41 36.01938 -78.60154 5183 ft 223 kts 92°
2026-05-07 03:41 36.01536 -78.58390 5052 ft 208 kts 134°
2026-05-07 03:41 36.00474 -78.57396 5001 ft 179 kts 176°
2026-05-07 03:42 35.99688 -78.57366 5001 ft 160 kts 204°
2026-05-07 03:42 35.98894 -78.58129 4959 ft 147 kts 245°
2026-05-07 03:42 35.98759 -78.59392 4860 ft 151 kts 266°
2026-05-07 03:42 35.98764 -78.60704 4624 ft 150 kts 266°
2026-05-07 03:43 35.98769 -78.61934 4341 ft 138 kts 265°
2026-05-07 03:43 35.98690 -78.63089 4051 ft 133 kts 257°
2026-05-07 03:43 35.98468 -78.64150 3802 ft 130 kts 250°
2026-05-07 03:43 35.98066 -78.65184 3395 ft 137 kts 235°
2026-05-07 03:44 35.97444 -78.66075 2963 ft 139 kts 229°
2026-05-07 03:44 35.96771 -78.66970 2595 ft 144 kts 228°
2026-05-07 03:44 35.96063 -78.67847 2362 ft 150 kts 226°
2026-05-07 03:44 35.95251 -78.68819 2150 ft 174 kts 225°
2026-05-07 03:45 35.94380 -78.69867 1941 ft 168 kts 226°
2026-05-07 03:45 35.93611 -78.70851 1803 ft 153 kts 226°
2026-05-07 03:45 35.92881 -78.71779 1656 ft 146 kts 227°
2026-05-07 03:45 35.92219 -78.72687 1536 ft 138 kts 226°
2026-05-07 03:46 35.91539 -78.73536 1341 ft 140 kts 224°
2026-05-07 03:46 35.90836 -78.74341 1118 ft 135 kts 224°
2026-05-07 03:46 35.90220 -78.75108 896 ft 123 kts 227°
2026-05-07 03:46 35.89607 -78.75866 778 ft 124 kts 224°
2026-05-07 03:47 35.89003 -78.76607 732 ft 122 kts 224°
2026-05-07 03:47 35.88398 -78.77352 618 ft 118 kts 224°
2026-05-07 03:47 35.87813 -78.78071 453 ft 113 kts 225°
2026-05-07 03:47 35.87334 -78.78648 424 ft 77 kts 227°
2026-05-07 03:48 35.87191 -78.78974 419 ft 22 kts 16°
2026-05-07 03:48 35.87309 -78.78883 420 ft 19 kts 45°
2026-05-07 03:48 35.87399 -78.78776 426 ft 17 kts 38°
2026-05-07 03:48 35.87479 -78.78677 425 ft 16 kts 48°
2026-05-07 03:49 35.87564 -78.78597 428 ft 15 kts 356°
2026-05-07 03:49 35.87650 -78.78634 430 ft 10 kts 36°
2026-05-07 03:49 35.87653 -78.78630 424 ft 0 kts 57°